• Join FlightAware (Why Join?)
  • Login
  • US Flag 
07:42AM EST


 

Airport Tracker/Info


-or-


 

Live Flight TrackerFlight Track Log ✈ SKW7367 ✈ 21-Apr-2014 ✈ KDTW - KAPN

Flight Track Log - Related Links

Times and Time Zones

All times are in EDT time to prevent confusion due to time zone crossing. See the SKW7367 flight status page for this flight to view local times or setup timezone preferences in your user account.

Time Position Orientation Groundspeed Altitude Reporting Facility
EDT Latitude Longitude Course Direction KTS MPH feet Rate Location/Type
04:04PM 42.2144 -83.3656 North 137 158 1,500  Level Cleveland Center
04:05PM 42.1714 -83.4356 230° Southwest 220 253 5,600 2,580 Climbing Cleveland Center
04:06PM 42.1664 -83.4400 213° Southwest 203 234 5,900 3,240 Climbing Cleveland Center
04:06PM 42.1656 -83.5106 269° West 252 290 8,900 3,480 Climbing Cleveland Center
04:07PM 42.1825 -83.5344 314° West 259 298 9,600 1,200 Climbing Cleveland Center
04:07PM 42.2056 -83.5842 302° West 272 313 10,000 660 Climbing Cleveland Center
04:08PM 42.5407 -83.3500 North  Level FlightAware Approximate
04:08PM 42.2283 -83.6069 323° Northwest 270 311 10,300  Level Cleveland Center
04:09PM 42.6259 -83.3500 North  Level FlightAware Approximate
04:09PM 42.3125 -83.6383 345° North 313 360 12,800  Level Cleveland Center
04:10PM 42.4117 -83.5944 18° North 366 421 14,600 1,020 Climbing Cleveland Center
04:11PM 42.5150 -83.5475 19° North 383 441 15,000 180 Climbing Cleveland Center
04:12PM 42.6161 -83.5019 18° North 385 443 15,000  Level Cleveland Center
04:13PM 42.7353 -83.4472 19° North 380 437 15,000  Level Cleveland Center
04:14PM 42.8356 -83.4019 18° North 380 437 15,000  Level Cleveland Center
04:15PM 42.9375 -83.3669 14° North 379 436 15,000  Level Cleveland Center
04:16PM 43.0414 -83.3678 360° North 376 433 15,000  Level Cleveland Center
04:17PM 43.1236 -83.4406 327° Northwest 368 423 15,000  Level Cleveland Center
04:18PM 43.2069 -83.5117 328° Northwest 367 422 15,000  Level Cleveland Center
04:19PM 43.3344 -83.5150 359° North 381 438 15,000  Level Cleveland Center
04:20PM 43.4394 -83.5181 359° North 380 437 15,000  Level Cleveland Center
04:21PM 43.5450 -83.5203 359° North 381 438 15,000  Level Cleveland Center
04:22PM 43.6511 -83.5000 North 385 443 15,000  Level Cleveland Center
04:23PM 43.7558 -83.4656 13° North 385 443 15,000  Level Cleveland Center
04:24PM 43.8594 -83.4350 12° North 385 443 15,000 -180 Level Cleveland Center
04:25PM 43.9836 -83.3931 14° North 385 443 14,700 -960 Descending Cleveland Center
04:26PM 44.0872 -83.3578 14° North 385 443 13,100 -1,620 Descending Cleveland Center
04:28PM 44.2153 -83.3161 13° North 347 399 11,000 -1,560 Descending Minneapolis Center
04:29PM 44.2908 -83.3169 360° North 285 328 9,600 -1,440 Descending Minneapolis Center
04:30PM 44.3664 -83.3486 343° North 265 305 8,100 -1,440 Descending Minneapolis Center
04:31PM 44.4367 -83.3769 344° North 263 303 6,700 -1,260 Descending Minneapolis Center
04:32PM 44.5133 -83.4108 343° North 270 311 5,500 -1,080 Descending Minneapolis Center
04:33PM 44.5836 -83.4472 340° North 270 311 4,500 -780 Descending Minneapolis Center
04:34PM 44.6589 -83.4886 339° North 274 315 4,000 -540 Descending Minneapolis Center
04:35PM 44.7225 -83.5200 341° North 250 288 3,500 -360 Descending Minneapolis Center
04:36PM 44.7919 -83.5486 344° North 248 285 3,300 -360 Descending Minneapolis Center
04:37PM 44.8536 -83.5600 353° North 231 266 2,800 -300 Descending Minneapolis Center
04:38PM 44.9175 -83.5600 360° North 218 251 2,800  Level Minneapolis Center
04:39PM 44.9628 -83.5603 360° North 179 206 2,800 -360 Level Minneapolis Center
04:40PM 45.0017 -83.5608 359° North 139 160 2,100 -780 Descending Minneapolis Center
04:41PM 45.0414 -83.5611 360° North 137 158 1,200 -720 Descending Minneapolis Center
04:42PM 45.0703 -83.5611 360° North 131 151 700 -540 Descending Minneapolis Center